Miscellaneous Local Product
Issued by NWS Hastings, NE

Home | Current Version | Previous Version | Text Only | Print | Product List | Glossary On
Versions: 1 2 3 4 5 6 7 8 9 10 11 12 13 14 15 16 17 18 19 20 21 22 23 24 25 26 27 28 29 30 31 32 33 34 35 36 37 38 39 40 41 42 43 44 45 46 47 48 49 50
000
AXUS43 KGID 160802
MISGRI

GID CWA HOURLY WEATHER ROUNDUP
NATIONAL WEATHER SERVICE HASTINGS NE
300 AM CDT TUE SEP 16 2014

NOTE: "FAIR" INDICATES FEW OR NO CLOUDS BELOW 12,000 FEET WITH NO
SIGNIFICANT WEATHER AND/OR OBSTRUCTIONS TO VISIBILITY.

...SOUTH CENTRAL NEBRASKA...

CITY           SKY/WX    TMP DP  RH WIND       PRES   REMARKS
GRAND ISLAND   CLEAR     46  42  86 S6        30.26F
HASTINGS       CLEAR     48  42  80 S5        30.26S
KEARNEY        CLEAR     45  39  81 SE6       30.25F
ORD            CLEAR     43  40  89 CALM      30.23F
YORK           CLEAR     46  45  93 S5        30.27
AURORA         CLEAR     45  42  89 CALM      30.27S
LEXINGTON      CLEAR     47  43  87 SE7       30.24F FOG
HOLDREGE       CLEAR     46  42  87 CALM      30.25F
HEBRON         CLEAR     42  40  92 CALM      30.27F

...NEBRASKA PANHANDLE...

CITY           SKY/WX    TMP DP  RH WIND       PRES   REMARKS
CHADRON        CLEAR     57  48  72 CALM      30.08S
ALLIANCE       PTCLDY    51  46  83 S8        30.14F
SCOTTSBLUFF    PTCLDY    51  49  92 E9        30.12F
SIDNEY         PTCLDY    53  50  89 S12       30.18F

...WESTERN AND NORTH CENTRAL NEBRASKA...

CITY           SKY/WX    TMP DP  RH WIND       PRES   REMARKS
VALENTINE      CLEAR     51  42  71 S10       30.16F
AINSWORTH      CLEAR     47  40  78 S12       30.18F
ONEILL         CLEAR     46  42  86 S8        30.22F
BROKEN BOW     CLEAR     38  36  92 SE3       30.23F
IMPERIAL       CLEAR     51  44  77 S8        30.22F
NORTH PLATTE   PTCLDY    50  42  74 SE7       30.23S
MCCOOK         CLEAR     50  43  77 SE7       30.25S

...EASTERN NEBRASKA...

CITY           SKY/WX    TMP DP  RH WIND       PRES   REMARKS
NORFOLK        CLEAR     42  40  92 CALM      30.25F
SO SIOUX CITY  CLEAR     41  39  93 CALM      30.26F
TEKAMAH        CLEAR     41  39  93 S3        30.27S
ALBION         CLEAR     38  36  91 CALM      30.25F
OMAHA EPPLEY   PTCLDY    48  46  93 CALM      30.29R FOG
OFFUTT AFB     CLEAR     40  40 100 CALM      30.27S
MILLARD        FOG       46  44  96 CALM      30.28S VSB 3/4
LINCOLN        CLEAR     41  39  93 CALM      30.28F
NEBRASKA CITY  CLEAR     50  40  69 CALM      30.27F
BEATRICE       CLEAR     42  41  97 CALM      30.27F
FALLS CITY     CLEAR     45  43  93 NW3       30.26F

...NORTHERN KANSAS...

CITY           SKY/WX    TMP DP  RH WIND       PRES   REMARKS
GOODLAND       CLOUDY    56  53  90 S8        30.26F
HILL CITY      CLEAR     45  41  86 CALM      30.26F
NORTON         SUNNY     48  39  71 SE6       30.25S
PHILLIPSBURG   CLEAR     46  43  87 CALM      30.27S
SMITH CENTER   CLEAR     45  43  93 E9        30.27S
BELOIT         CLEAR     45  45 100 CALM      30.26S
HAYS           CLEAR     48  43  81 E6        30.25F
RUSSELL        CLEAR     49  46  90 E7        30.24F
CONCORDIA      CLEAR     45  45 100 SE3       30.26F
SALINA         CLEAR     54  49  83 E7        30.26F
TOPEKA         CLEAR     49  48  97 CALM      30.27S



USA.gov is the U.S. government's official web portal to all federal, state and local government web resources and services.